Satellite-Ground Cal/Val Region Overpasses Predictions

Prediction of Satellite NPP Overpassing Cal/Val Region: PacNW

Region Location: (Latitude: 10.00, Longitude: 139.50) to (Latitude: 22.70, Longitude: 165.60).

Table of predicted overpasses for the next 14.0 days since TLE Epoch: 6/19/2020
Interval Starting Time Starting Location Ending Time Ending Location
1 06/20/2020 03:23:15 ( 10.06, 148.85) 06/20/2020 03:26:50 ( 22.68, 145.85)
2 06/20/2020 15:55:08 ( 22.66, 146.10) 06/20/2020 15:58:43 ( 10.04, 143.09)
3 06/21/2020 03:04:12 ( 10.04, 153.62) 06/21/2020 03:07:47 ( 22.66, 150.61)
4 06/21/2020 15:36:05 ( 22.67, 150.86) 06/21/2020 15:39:40 ( 10.05, 147.86)
5 06/22/2020 02:45:10 ( 10.02, 158.38) 06/22/2020 02:48:45 ( 22.64, 155.38)
6 06/22/2020 15:17:03 ( 22.69, 155.62) 06/22/2020 15:20:39 ( 10.01, 152.61)
7 06/23/2020 02:26:07 ( 10.01, 163.14) 06/23/2020 02:29:43 ( 22.69, 160.13)
8 06/23/2020 14:58:01 ( 22.65, 160.37) 06/23/2020 15:01:36 ( 10.03, 157.37)
9 06/24/2020 02:09:53 ( 19.86, 165.59) 06/24/2020 02:10:41 ( 22.67, 164.89)
10 06/24/2020 03:48:36 ( 10.06, 142.52) 06/24/2020 03:52:11 ( 22.68, 139.51)
11 06/24/2020 14:38:59 ( 22.66, 165.14) 06/24/2020 14:42:34 ( 10.04, 162.13)
12 06/24/2020 16:20:29 ( 22.66, 139.76) 06/24/2020 16:20:46 ( 21.66, 139.51)
13 06/25/2020 03:29:33 ( 10.04, 147.28) 06/25/2020 03:33:08 ( 22.66, 144.28)
14 06/25/2020 16:01:26 ( 22.67, 144.53) 06/25/2020 16:05:01 ( 10.05, 141.52)
15 06/26/2020 03:10:31 ( 10.03, 152.05) 06/26/2020 03:14:06 ( 22.65, 149.04)
16 06/26/2020 15:42:24 ( 22.69, 149.29) 06/26/2020 15:46:00 ( 10.01, 146.27)
17 06/27/2020 02:51:28 ( 10.01, 156.81) 06/27/2020 02:55:04 ( 22.69, 153.79)
18 06/27/2020 15:23:21 ( 22.70, 154.05) 06/27/2020 15:26:57 ( 10.02, 151.03)
19 06/28/2020 02:32:27 ( 10.06, 161.56) 06/28/2020 02:36:02 ( 22.68, 158.55)
20 06/28/2020 15:04:20 ( 22.66, 158.80) 06/28/2020 15:07:55 ( 10.04, 155.80)
21 06/29/2020 02:14:19 ( 13.22, 165.59) 06/29/2020 02:17:00 ( 22.66, 163.32)
22 06/29/2020 03:54:55 ( 10.05, 140.95) 06/29/2020 03:56:40 ( 16.22, 139.51)
23 06/29/2020 14:45:17 ( 22.67, 163.57) 06/29/2020 14:48:52 ( 10.05, 160.56)
24 06/30/2020 03:35:52 ( 10.04, 145.71) 06/30/2020 03:39:27 ( 22.66, 142.71)
25 06/30/2020 14:29:30 ( 11.24, 165.59) 06/30/2020 14:29:51 ( 10.01, 165.31)
26 06/30/2020 16:07:45 ( 22.68, 142.95) 06/30/2020 16:11:20 ( 10.06, 139.95)
27 07/01/2020 03:16:50 ( 10.02, 150.47) 07/01/2020 03:20:25 ( 22.64, 147.47)
28 07/01/2020 15:48:42 ( 22.69, 147.72) 07/01/2020 15:52:18 ( 10.01, 144.70)
29 07/02/2020 02:57:47 ( 10.01, 155.24) 07/02/2020 03:01:23 ( 22.69, 152.22)
30 07/02/2020 15:29:41 ( 22.65, 152.46) 07/02/2020 15:33:16 ( 10.03, 149.46)
31 07/03/2020 02:38:46 ( 10.05, 159.99) 07/03/2020 02:42:21 ( 22.68, 156.98)


NCC Satellite Cal/Val Overpasses Prediction Service
